LX1CU-13 Weather Reports


Display with metric or nautical units.
time (UTC)temp
F
wind
direction
speed
MPH
gust
MPH
rain 1hr
in
rain 24hr
in
rain mn
in
humidity
%
barometer
mb
20260504140835 57 315 0.0 0.0 0.00 0.00 0.00 80 1009.8
20260504140335 57 315 0.0 0.0 0.00 0.00 0.00 79 1009.9
20260504130335 59 315 0.0 0.0 0.00 0.00 0.00 80 1010.0
20260504110336 57 225 0.0 0.0 0.00 0.00 0.00 83 1010.6
20260504100336 58 135 0.0 0.0 0.00 0.00 0.00 74 1010.4
20260504081836 61 135 0.0 0.0 0.00 0.00 0.00 69 1010.2
20260504081336 62 135 0.0 0.0 0.00 0.00 0.00 68 1010.2
20260504080836 63 135 0.0 0.0 0.00 0.00 0.00 69 1010.2
20260504080336 64 135 0.0 0.0 0.00 0.00 0.00 72 1010.2
20260504070336 56 225 0.0 0.0 0.00 0.00 0.00 85 1010.0
20260504050336 43 270 0.0 0.0 0.00 0.00 0.00 90 1009.7
20260504045836 43 270 0.0 0.0 0.00 0.00 0.00 89 1009.8
20260504045336 43 270 0.0 0.0 0.00 0.00 0.00 89 1009.6
20260504044836 43 270 0.0 0.0 0.00 0.00 0.00 89 1009.5
20260504044336 42 270 0.0 0.0 0.00 0.00 0.00 89 1009.7
20260504043836 42 270 0.0 0.0 0.00 0.00 0.00 89 1009.5
20260504043336 42 270 0.0 0.0 0.00 0.00 0.00 89 1009.6
20260504042836 42 270 0.0 0.0 0.00 0.00 0.00 89 1009.7
20260504042336 42 270 0.0 0.0 0.00 0.00 0.00 89 1009.6
20260504041836 42 270 0.0 0.0 0.00 0.00 0.00 89 1009.5
20260504041336 42 270 0.0 0.0 0.00 0.00 0.00 89 1009.5
20260504040836 42 270 0.0 0.0 0.00 0.00 0.00 89 1009.6
20260504040336 42 270 0.0 0.0 0.00 0.00 0.00 89 1009.8
20260504035836 42 270 0.0 0.0 0.00 0.00 0.00 89 1009.8
20260504035337 42 270 0.0 0.0 0.00 0.00 0.00 89 1009.7
20260504034836 42 270 0.0 0.0 0.00 0.00 0.00 89 1009.7
20260504034336 42 270 0.0 0.0 0.00 0.00 0.00 89 1009.7
20260504033836 42 270 0.0 0.0 0.00 0.00 0.00 89 1009.8
20260504033336 42 270 0.0 0.0 0.00 0.00 0.00 89 1009.7
20260504032836 42 270 0.0 0.0 0.00 0.00 0.00 89 1009.6
20260504032336 42 270 0.0 0.0 0.00 0.00 0.00 89 1009.4
20260504031836 42 270 0.0 0.0 0.00 0.00 0.00 89 1009.4
20260504031336 42 270 0.0 0.0 0.00 0.00 0.00 89 1009.3
20260504030836 42 270 0.0 0.0 0.00 0.00 0.00 89 1009.3
20260504030336 41 270 0.0 0.0 0.00 0.00 0.00 89 1009.5
20260504025836 41 270 0.0 0.0 0.00 0.00 0.00 89 1009.5
20260504025336 41 270 0.0 0.0 0.00 0.00 0.00 89 1009.5
20260504024836 41 270 0.0 0.0 0.00 0.00 0.00 89 1009.5
20260504024337 42 270 0.0 0.0 0.00 0.00 0.00 89 1009.5
20260504023837 42 270 0.0 0.0 0.00 0.00 0.00 89 1009.6
20260504023336 42 270 0.0 0.0 0.00 0.00 0.00 89 1009.5
20260504022837 42 270 0.0 0.0 0.00 0.00 0.00 89 1009.5
20260504022337 42 270 0.0 0.0 0.00 0.00 0.00 89 1009.6
20260504021837 42 270 0.0 0.0 0.00 0.00 0.00 89 1009.4
20260504021337 42 270 0.0 0.0 0.00 0.00 0.00 89 1009.5
20260504020837 42 270 0.0 0.0 0.00 0.00 0.00 89 1009.7
20260504020337 43 270 0.0 0.0 0.00 0.00 0.00 89 1009.9
20260504015837 43 270 0.0 0.0 0.00 0.00 0.00 89 1009.9
20260504015337 42 270 0.0 0.0 0.00 0.00 0.00 88 1010.0
20260504014837 42 270 0.0 0.0 0.00 0.00 0.00 88 1009.9
20260504014337 43 270 0.0 0.0 0.00 0.00 0.00 88 1009.9
20260504013837 43 270 0.0 0.0 0.00 0.00 0.00 88 1009.9
20260504013337 43 270 0.0 0.0 0.00 0.00 0.00 88 1009.9
20260504012837 43 270 0.0 0.0 0.00 0.00 0.00 88 1009.9
20260504012337 43 270 0.0 0.0 0.00 0.00 0.00 88 1009.9
20260504011837 43 270 0.0 0.0 0.00 0.00 0.00 88 1009.9
20260504011337 44 270 0.0 0.0 0.00 0.00 0.00 88 1009.9
20260504010837 44 270 0.0 0.0 0.00 0.00 0.00 88 1009.7
20260504010337 44 270 0.0 0.0 0.00 0.00 0.00 88 1009.7
20260504005837 44 270 0.0 0.0 0.00 0.00 0.00 88 1009.7
20260504005337 44 270 0.0 0.0 0.00 0.00 0.00 88 1009.8
20260504004837 44 270 0.0 0.0 0.00 0.00 0.00 87 1009.8
20260504004337 44 270 0.0 0.0 0.00 0.00 0.00 87 1009.8
20260504003837 44 270 0.0 0.0 0.00 0.00 0.00 87 1009.8
20260504003337 44 270 0.0 0.0 0.00 0.00 0.00 88 1009.7
20260504002837 44 270 0.0 0.0 0.00 0.00 0.00 88 1009.7
20260504002337 44 270 0.0 0.0 0.00 0.00 0.00 88 1009.7
20260504001837 44 270 0.0 0.0 0.00 0.00 0.00 88 1009.6
20260504001337 44 270 0.0 0.0 0.00 0.00 0.00 88 1009.6
20260504000837 45 270 0.0 0.0 0.00 0.00 0.00 88 1009.7
20260504000337 45 270 0.0 0.0 0.00 0.00 0.00 88 1009.6
20260503235837 45 270 0.0 0.0 0.00 0.00 0.00 88 1009.8
20260503235337 45 270 0.0 0.0 0.00 0.00 0.00 87 1009.7
20260503234837 45 270 0.0 0.0 0.00 0.00 0.00 87 1009.6
20260503234337 45 270 0.0 0.0 0.00 0.00 0.00 87 1009.5
20260503233837 44 270 0.0 0.0 0.00 0.00 0.00 87 1009.5
20260503233337 44 270 0.0 0.0 0.00 0.00 0.00 87 1009.5
20260503232837 44 270 0.0 0.0 0.00 0.00 0.00 87 1009.5
20260503232337 45 270 0.0 0.0 0.00 0.00 0.00 87 1009.5
20260503231837 45 270 0.0 0.0 0.00 0.00 0.00 87 1009.5
20260503231337 45 270 0.0 0.0 0.00 0.00 0.00 87 1009.6
20260503230837 45 270 0.0 0.0 0.00 0.00 0.00 87 1009.7
20260503230337 45 270 0.0 0.0 0.00 0.00 0.00 87 1009.7
20260503225837 45 270 0.0 0.0 0.00 0.00 0.00 87 1009.7
20260503225337 45 270 0.0 0.0 0.00 0.00 0.00 86 1009.8
20260503224837 45 270 0.0 0.0 0.00 0.00 0.00 86 1009.9
20260503224337 45 270 0.0 0.0 0.00 0.00 0.00 86 1009.8
20260503223837 45 270 0.0 0.0 0.00 0.00 0.00 86 1009.9
20260503223337 45 270 0.0 0.0 0.00 0.00 0.00 86 1009.8
20260503222837 45 270 0.0 0.0 0.00 0.00 0.00 86 1009.8
20260503222337 46 270 0.0 0.0 0.00 0.00 0.00 86 1009.7
20260503221837 46 270 0.0 0.0 0.00 0.00 0.00 86 1009.6
20260503221337 46 270 0.0 0.0 0.00 0.00 0.00 86 1009.6
20260503220837 46 270 0.0 0.0 0.00 0.00 0.00 86 1009.5
20260503220337 46 270 0.0 0.0 0.00 0.00 0.00 86 1009.6
20260503215837 46 270 0.0 0.0 0.00 0.00 0.00 86 1009.5
20260503215337 47 270 0.0 0.0 0.00 0.00 0.00 85 1009.7
20260503214837 47 270 0.0 0.0 0.00 0.00 0.00 85 1009.5
20260503214337 47 270 0.0 0.0 0.00 0.00 0.00 85 1009.6
20260503213837 47 270 0.0 0.0 0.00 0.00 0.00 85 1009.6
20260503213337 47 270 0.0 0.0 0.00 0.00 0.00 85 1009.5
20260503212837 47 270 0.0 0.0 0.00 0.00 0.00 85 1009.4
20260503212337 48 270 0.0 0.0 0.00 0.00 0.00 84 1009.4
20260503211837 48 270 0.0 0.0 0.00 0.00 0.00 84 1009.3
20260503211337 48 270 0.0 0.0 0.00 0.00 0.00 84 1009.4
20260503210837 48 270 0.0 0.0 0.00 0.00 0.00 84 1009.4
20260503210337 48 270 0.0 0.0 0.00 0.00 0.00 84 1009.5
20260503205837 48 270 0.0 0.0 0.00 0.00 0.00 83 1009.7
20260503205337 49 270 0.0 0.0 0.00 0.00 0.00 83 1009.5
20260503204837 49 270 0.0 0.0 0.00 0.00 0.00 82 1009.5
20260503204337 49 270 0.0 0.0 0.00 0.00 0.00 82 1009.5
20260503203837 49 270 0.0 0.0 0.00 0.00 0.00 82 1009.5
20260503203337 50 270 0.0 0.0 0.00 0.00 0.00 82 1009.5
20260503202837 50 270 0.0 0.0 0.00 0.00 0.00 81 1009.5
20260503202337 50 270 0.0 0.0 0.00 0.00 0.00 81 1009.5
20260503201837 51 270 0.0 0.0 0.00 0.00 0.00 81 1009.5
20260503201337 51 270 0.0 0.0 0.00 0.00 0.00 80 1009.4
20260503200837 51 270 0.0 0.0 0.00 0.00 0.00 80 1009.4
20260503200337 52 270 0.0 0.0 0.00 0.00 0.00 80 1009.5
20260503195837 52 270 0.0 0.0 0.00 0.00 0.00 80 1009.5
20260503195337 52 270 0.0 0.0 0.00 0.00 0.00 79 1009.5
20260503194837 53 270 0.0 0.0 0.00 0.00 0.00 79 1009.5
20260503194337 53 270 0.0 0.0 0.00 0.00 0.00 78 1009.5
20260503193837 53 270 0.0 0.0 0.00 0.00 0.00 78 1009.4
20260503193337 54 270 0.0 0.0 0.00 0.00 0.00 77 1009.5
20260503192837 55 270 0.0 0.0 0.00 0.00 0.00 76 1009.5
20260503192337 55 270 0.0 0.0 0.00 0.00 0.00 75 1009.5
20260503191837 55 270 0.0 0.0 0.00 0.00 0.00 75 1009.6
20260503191337 56 270 0.0 0.0 0.00 0.00 0.00 75 1009.6
20260503190837 57 270 0.0 0.0 0.00 0.00 0.00 75 1009.4
20260503190337 57 270 0.0 0.0 0.00 0.00 0.00 74 1009.4
20260503185837 57 270 0.0 0.0 0.00 0.00 0.00 74 1009.4
20260503185337 58 270 0.0 0.0 0.00 0.00 0.00 74 1009.5
20260503184837 58 270 0.0 0.0 0.00 0.00 0.00 73 1009.5
20260503184337 58 270 0.0 0.0 0.00 0.00 0.00 73 1009.5
20260503183837 58 270 0.0 0.0 0.00 0.00 0.00 73 1009.4
20260503183337 58 270 0.0 0.0 0.00 0.00 0.00 73 1009.4
20260503182837 59 292 0.0 0.0 0.00 0.00 0.00 73 1009.5
20260503182337 59 270 0.0 0.0 0.00 0.00 0.00 72 1009.4
20260503181837 59 270 0.0 0.0 0.00 0.00 0.00 72 1009.4
20260503181338 59 270 0.0 0.0 0.00 0.00 0.00 72 1009.4
20260503180837 59 270 0.0 0.0 0.00 0.00 0.00 72 1009.2
20260503180337 59 292 0.0 0.0 0.00 0.00 0.00 72 1009.0
20260503175837 59 292 0.0 0.0 0.00 0.00 0.00 72 1009.1
20260503175337 59 292 0.0 0.0 0.00 0.00 0.00 72 1009.1
20260503174838 59 270 0.0 0.0 0.00 0.00 0.00 71 1009.0
20260503174337 59 270 0.0 0.0 0.00 0.00 0.00 71 1009.0
20260503173838 60 225 0.0 0.0 0.00 0.00 0.00 71 1008.9
20260503173338 60 225 0.0 0.0 0.00 0.00 0.00 71 1009.1
20260503172838 60 247 0.0 0.0 0.00 0.00 0.00 71 1009.0
20260503172338 59 180 0.0 0.0 0.00 0.00 0.00 72 1009.0
20260503171838 59 270 0.0 0.0 0.00 0.00 0.00 72 1009.0
20260503171338 59 225 0.0 0.0 0.00 0.00 0.00 72 1009.0
20260503170838 59 180 0.0 0.0 0.00 0.00 0.00 72 1009.0
20260503170338 59 270 0.0 0.0 0.00 0.00 0.00 71 1009.0
20260503150838 60 247 0.0 0.0 0.00 0.00 0.00 76 1009.8
20260503150338 60 180 0.0 0.0 0.00 0.00 0.00 76 1009.7